Back to catalog

STARLINK-3523

AliveCommunicationsVLEO
NORAD 51729·PAYLOAD·🇺🇸 United States

Launched Feb 21, 2022 from Cape Canaveral Space Force Station

Loading…

Next Passes (next 24 hours)

TLE

FreshSource: CelesTrak SupGP

Epoch: Sep 14, 2026, 20:53 UTC

1 51729C 22016R   26257.87062500 -.00018440  00000+0 -54477-3 0  2570
2 51729  53.1578 175.7231 0001319  91.0180  18.1885 15.34402428    19

Track STARLINK-3523 in real time with AllMySat

Download on the App Store